sat.trackr.live / text

‹ back to catalog

RAPTOR4

NORAD 58956 · 2024-028B

PAYLOAD ACTIVE UNKNOWN

§ Identity

Operator
Country
US
Launch date
2024-02-14
Launch site
AFETR
Launch vehicle
Mass (kg)
RCS (m²)

External: N2YO · Heavens-Above · Gunter

§ Orbital elements

Epoch: 2026-05-24T07:11:07.446336Z

Period
105.08 min
Inclination
39.9871°
Eccentricity
0.0013971
Mean motion
13.70381007 rev/d
Perigee alt
987.9 km
Apogee alt
1,008.5 km
Semi-major
7,376.3 km
B*
3.0041e-5
RAAN
154.1785°
Arg perigee
103.8852°
Mean anomaly
256.3450°
Rev number
11,377

§ Raw data

RAPTOR41 58956U 24028B   26144.29939174 -.00000051  00000+0  30041-4 0  99982 58956  39.9871 154.1785 0013971 103.8852 256.3450 13.70381007113775

JSON: /api/v1/satellites/58956 · /tle

For live sub-satellite position, see the globe view (requires WebGL).

§ Visibility from observer

Set your observer location to see the next 7 days of passes ≥ 10°. The values pass through the URL so the page stays shareable.

No JS? Fill the form by hand. The geolocation button needs JavaScript.